User: anonymous   Login
Location: Young's Pond
(41.2695°N, 72.7766°W)
Time: 12:49:52
(UTC-05:00)
Language:

CZ-4B R/B - Orbit

View from above orbital plane
View from above orbital plane
View from above satellite
View from above satellite

Ground track
Ground track

The orbit data is extracted from the following two-line orbital elements,

1 29093U 06015B   14327.82686536  .00011825  00000-0  40013-3 0  4562
2 29093 097.5104 048.0406 0087155 060.1507 079.0212 15.27108605473918
Epoch (UTC): 23 November 2014 19:50:41
Eccentricity: 0.0087155
inclination: 97.5104°
perigee height: 424 km
apogee height: 544 km
right ascension of ascending node: 48.0406°
argument of perigee: 60.1507°
revolutions per day: 15.27108605
mean anomaly at epoch: 79.0212°
orbit number at epoch: 47391

The dashed part of the orbit path shows where the satellite is in the earth's shadow,  

DLR